sat.trackr.live / text

‹ back to catalog

KUIPER-00018

NORAD 63733 · 2025-088K

PAYLOAD ACTIVE UNKNOWN

§ Identity

Operator
Country
US
Launch date
2025-04-28
Launch site
AFETR
Launch vehicle
Mass (kg)
RCS (m²)

External: N2YO · Heavens-Above · Gunter

§ Orbital elements

Epoch: 2026-09-21T10:10:33.496320Z

Period
97.30 min
Inclination
51.9009°
Eccentricity
0.0000473
Mean motion
14.79952314 rev/d
Perigee alt
629.1 km
Apogee alt
629.8 km
Semi-major
7,007.6 km
B*
4.9259e-4
RAAN
315.0797°
Arg perigee
62.0093°
Mean anomaly
298.0917°
Rev number
7,647

§ Raw data

KUIPER-000181 63733U 25088K   26264.42399880  .00003538  00000+0  49259-3 0  99982 63733  51.9009 315.0797 0000473  62.0093 298.0917 14.79952314 76479

JSON: /api/v1/satellites/63733 · /tle

For live sub-satellite position, see the globe view (requires WebGL).

§ Visibility from observer

Set your observer location to see the next 7 days of passes ≥ 10°. The values pass through the URL so the page stays shareable.

No JS? Fill the form by hand. The geolocation button needs JavaScript.